Concordia, KS

4:13 AM CST on December 09, 2019 (GMT -0600)
Blosser Municipal

Weather History for KCNK - August, 2019

Change the Weather History Date:

Friday, August 9, 2019

  Actual Average Record
Temperature  
Mean Temperature 77 °F 78 °F  
Max Temperature 86 °F 90 °F 108 °F (1934)
Min Temperature 68 °F 67 °F 55 °F (1927)
Degree Days  
Heating Degree Days 0 0  
Month to date heating degree days 0 0  
Since 1 June heating degree days 0 13  
Since 1 July heating degree days 0 0  
Cooling Degree Days 12 13  
Month to date cooling degree days 119 122  
Year to date cooling degree days 1024 912  
Since 1 June cooling degree days 924 823  
Growing Degree Days 27 (Base 50)    
Moisture  
Dew Point 69 °F    
Average Humidity 75    
Maximum Humidity 93    
Minimum Humidity 57    
Precipitation  
Precipitation 0.00 in 0.11 in 2.19 in (1968)
Month to date precipitation 1.63 0.97  
Year to date precipitation 23.86 18.93  
Snow  
Snow 0.00 in 0.00 in 0.00 in ()
Month to date snowfall 0.0 0.0  
Year to date snowfall 32.3 13.7  
Since 1 July snowfall 0.0 0.0  
Snow Depth 0.00 in    
Sea Level Pressure  
Sea Level Pressure 29.93 in    
Wind  
Wind Speed 5 mph (SSE)    
Max Wind Speed 17 mph    
Max Gust Speed 22 mph    
Visibility 9 miles    
Events      
T = Trace of Precipitation, MM = Missing Value Source: NWS Daily Summary

Daily Weather History Graph

Daily Weather History Graph

Search for Another Location

Airport or City:

Astronomy

Aug. 09, 2019 Rise Set
Actual Time 6:37 AM CDT 8:34 PM CDT
Civil Twilight 6:07 AM CDT 9:03 PM CDT
Nautical Twilight 5:32 AM CDT 9:39 PM CDT
Astronomical Twilight 4:53 AM CDT 10:17 PM CDT
Moon 4:16 PM CDT 1:35 AM CDT
Length of Visible Light 14h 55m
Length of Day
13h 57m
Waxing Gibbous, 70% of the Moon is Illuminated
Aug 9
Waxing Gibbous
Aug 15
Full
Aug 23
Last Quarter
Aug 30
New
Sep 5
First Quarter

Hourly Weather History & Observations

Time (CDT) Temp. Heat Index Dew Point Humidity Pressure Visibility Wind Dir Wind Speed Gust Speed Precip Events Conditions
12:55 AM 73.9 °F - 70.0 °F 87% 29.93 in 10.0 mi SE 3.5 mph - N/A   Clear
1:55 AM 72.0 °F - 70.0 °F 93% 29.92 in 10.0 mi Calm Calm - N/A   Clear
2:55 AM 72.0 °F - 69.1 °F 91% 29.92 in 10.0 mi South 5.8 mph - N/A   Clear
3:55 AM 72.0 °F - 68.0 °F 87% 29.92 in 10.0 mi Calm Calm - N/A   Clear
4:55 AM 71.1 °F - 68.0 °F 90% 29.94 in 10.0 mi Calm Calm - N/A   Clear
5:55 AM 69.1 °F - 66.9 °F 93% 29.95 in 7.0 mi Calm Calm - N/A   Clear
6:55 AM 68.0 °F - 66.0 °F 93% 29.96 in 5.0 mi Calm Calm - N/A   Clear
7:55 AM 71.1 °F - 69.1 °F 93% 29.98 in 6.0 mi Calm Calm - N/A   Clear
8:55 AM 77.0 °F - 70.0 °F 79% 29.97 in 10.0 mi Calm Calm - N/A   Clear
9:55 AM 79.0 °F - 71.1 °F 77% 29.97 in 10.0 mi Variable 4.6 mph - N/A   Clear
10:30 AM 79.0 °F - 71.1 °F 77% 30.01 in 10.0 mi South 6.9 mph - N/A   Mostly Cloudy
10:55 AM 80.1 °F 83.6 °F 71.1 °F 74% 29.96 in 10.0 mi South 10.4 mph - N/A   Mostly Cloudy
11:55 AM 81.0 °F 84.4 °F 70.0 °F 69% 29.96 in 10.0 mi SE 6.9 mph - N/A   Clear
12:55 PM 82.9 °F 87.0 °F 70.0 °F 65% 29.95 in 10.0 mi ESE 6.9 mph - N/A   Clear
1:55 PM 84.9 °F 88.8 °F 69.1 °F 59% 29.94 in 10.0 mi SE 6.9 mph - N/A   Clear
2:55 PM 84.9 °F 88.8 °F 69.1 °F 59% 29.93 in 10.0 mi ESE 6.9 mph - N/A   Partly Cloudy
3:55 PM 86.0 °F 90.7 °F 70.0 °F 59% 29.91 in 10.0 mi South 10.4 mph - N/A   Scattered Clouds
4:55 PM 84.9 °F 90.1 °F 71.1 °F 63% 29.89 in 10.0 mi SSE 11.5 mph 19.6 mph N/A   Partly Cloudy
5:55 PM 82.9 °F 86.5 °F 69.1 °F 63% 29.88 in 10.0 mi SSE 10.4 mph - N/A   Partly Cloudy
6:55 PM 82.9 °F 87.0 °F 70.0 °F 65% 29.87 in 10.0 mi South 10.4 mph - N/A   Partly Cloudy
7:55 PM 81.0 °F 84.4 °F 70.0 °F 69% 29.87 in 10.0 mi South 9.2 mph - N/A   Clear
8:55 PM 75.9 °F - 69.1 °F 79% 29.87 in 10.0 mi South 5.8 mph - N/A   Clear
9:55 PM 73.9 °F - 70.0 °F 87% 29.90 in 10.0 mi SSE 4.6 mph - N/A   Clear
10:55 PM 73.0 °F - 69.1 °F 87% 29.91 in 10.0 mi South 5.8 mph - N/A   Clear
11:55 PM 72.0 °F - 69.1 °F 91% 29.90 in 10.0 mi SSE 5.8 mph - N/A   Clear